This demonstration page uses our WeatherBlox Daily Observations layout. Learn more.

Left ArrowRight Arrow

Hourly Observations for March 2, 2019

Temp ( °F °C ) Dew Point ( °F °C ) Humidity (%) Winds ( mph kmh ) Pressure ( in mb ) Visibility ( mi km ) Precip ( " mm )
12:52 am 00:52 Mostly Clear 13 -10.6 8 -13.3 81 81 N 7 11 30.35 1028 10 16 0.00 0.00
1:52 am 01:52 Partly Cloudy 11 -11.7 7 -13.9 84 84 N 9 15 30.37 1028 10 16 0.00 0.00
2:52 am 02:52 Mostly Cloudy 10 -12.2 5 -15 80 80 NNW 12 19 30.38 1029 10 16 0.00 0.00
3:52 am 03:52 Mostly Cloudy 9 -12.8 4 -15.6 80 80 NNE 10 17 30.38 1029 10 16 0.00 0.00
4:52 am 04:52 Mostly Cloudy 9 -12.8 4 -15.6 80 80 N 12 19 30.38 1029 10 16 0.00 0.00
5:52 am 05:52 Cloudy 10 -12.2 5 -15 80 80 N 13 20 30.38 1029 10 16 0.00 0.00
6:52 am 06:52 Cloudy 11 -11.7 5 -15 77 77 N 16 26 30.40 1030 10 16 0.00 0.00
7:52 am 07:52 Cloudy 10 -12.2 4 -15.6 76 76 NNW 15 24 30.44 1031 10 16 0.00 0.00
8:52 am 08:52 Cloudy 10 -12.2 4 -15.6 76 76 NNW 15 24 30.48 1032 10 16 0.00 0.00
9:52 am 09:52 Cloudy 9 -12.8 3 -16.1 77 77 NNW 17 28 30.50 1033 10 16 0.00 0.00
10:52 am 10:52 Cloudy 11 -11.7 4 -15.6 73 73 N 13 20 30.50 1033 10 16 0.00 0.00
11:52 am 11:52 Cloudy with Light Snow 12 -11.1 5 -15 73 73 N 15 24 30.52 1034 9 14 0.00 0.03
12:07 pm 12:07 Cloudy with Light Snow 12 -11.1 5 -15 73 73 N 13 20 30.56 1035 2 3 0.00 0.03
12:27 pm 12:27 Cloudy with Light Snow 12 -11.1 5 -15 73 73 N 13 20 30.56 1035 1 2 0.00 0.03
12:52 pm 12:52 Cloudy with Light Snow 12 -11.1 6 -14.4 77 77 N 10 17 30.51 1033 1 2 0.01 0.25
1:52 pm 13:52 Cloudy with Light Snow 13 -10.6 7 -13.9 77 77 N 12 19 30.49 1032 1 2 0.03 0.76
2:25 pm 14:25 Cloudy with Light Snow 14 -10 8 -13.3 77 77 N 10 17 30.52 1033 1 1 0.01 0.25
2:52 pm 14:52 Cloudy with Light Snow 14 -10 8 -13.3 77 77 N 13 20 30.48 1032 1 1 0.02 0.51
3:20 pm 15:20 Cloudy with Light Snow 14 -10 9 -12.8 80 80 N 14 22 30.50 1033 1 2 0.00 0.03
3:31 pm 15:31 Cloudy with Light Snow 15 -9.4 9 -12.8 77 77 N 14 22 30.51 1033 2 3 0.00 0.03
3:37 pm 15:37 Cloudy with Light Snow 15 -9.4 9 -12.8 77 77 N 15 24 30.51 1033 1 2 0.00 0.03
3:52 pm 15:52 Cloudy with Light Snow 15 -9.4 10 -12.2 80 80 N 16 26 30.47 1032 1 2 0.01 0.25
4:52 pm 16:52 Cloudy with Light Snow 17 -8.3 10 -12.2 74 74 N 15 24 30.47 1032 1 2 0.00 0.03
5:21 pm 17:21 Cloudy with Light Snow 17 -8.3 11 -11.7 77 77 N 15 24 30.51 1033 1 1 0.00 0.03
5:52 pm 17:52 Cloudy with Light Snow 16 -8.9 11 -11.7 80 80 N 13 20 30.48 1032 1 1 0.00 0.03
6:52 pm 18:52 Cloudy with Light Snow 16 -8.9 10 -12.2 77 77 N 13 20 30.50 1033 1 1 0.00 0.03
7:45 pm 19:45 Cloudy with Light Snow 15 -9.4 9 -12.8 77 77 N 14 22 30.56 1035 1 2 0.00 0.03
7:52 pm 19:52 Cloudy with Light Snow 15 -9.4 9 -12.8 77 77 N 13 20 30.52 1034 1 2 0.00 0.03
8:43 pm 20:43 Windy with Snow Likely 14 -10 8 -13.3 77 77 N 20 31 30.54 1034 2 3 0.00 0.03
8:52 pm 20:52 Cloudy with Light Snow 14 -10 8 -13.3 77 77 N 16 26 30.50 1033 2 3 0.00 0.03
9:41 pm 21:41 Windy with Snow Likely 13 -10.6 6 -14.4 74 74 N 21 33 30.54 1034 3 5 0.00 0.03
9:52 pm 21:52 Cloudy with Light Snow 12 -11.1 6 -14.4 77 77 NNW 17 28 30.51 1033 3 5 0.00 0.03
10:52 pm 22:52 Cloudy with Light Snow 11 -11.7 4 -15.6 73 73 NNW 18 30 30.54 1034 4 6 0.00 0.03
11:18 pm 23:18 Windy with Snow Likely 10 -12.2 4 -15.6 76 76 N 22 35 30.58 1036 2 3 0.00 0.03
11:52 pm 23:52 Cloudy with Light Snow 9 -12.8 3 -16.1 77 77 N 18 30 30.52 1034 2 3 0.00 0.03

Powered by AerisWeather